User: anonymous   Login
Location: Unspecified
(0.0000°N, 0.0000°E)
Time: 08:33:16
(UTC+00:00)
Language:

Tiros 1 - Orbit

View from above orbital plane
View from above orbital plane
View from above satellite
View from above satellite

Ground track
Ground track

The orbit data is extracted from the following two-line orbital elements,

1 00029U 60002B   16342.17590822 -.00000078  00000-0  19419-4 0  9993
2 00029  48.3801 267.4265 0023617 122.1540 238.1667 14.74123729 28578
Epoch (UTC): 07 December 2016 04:13:18
Eccentricity: 0.0023617
inclination: 48.3801°
perigee height: 631 km
apogee height: 664 km
right ascension of ascending node: 267.4265°
argument of perigee: 122.1540°
revolutions per day: 14.74123729
mean anomaly at epoch: 238.1667°
orbit number at epoch: 2857

The dashed part of the orbit path shows where the satellite is in the earth's shadow,  

DLR